KD0SBM Weather Reports


time (UTC)temp
C
wind
direction
speed
KPH
gust
KPH
rain 1hr
cm
rain 24hr
cm
rain mn
cm
humidity
%
barometer
mb
20260906162524 23 132 11.3 19.3 0.00 0.03 0.03 80 1019.7
20260906162026 23 138 4.8 16.1 0.00 0.03 0.03 80 1019.7
20260906161544 23 149 8.0 17.7 0.00 0.03 0.03 81 1019.6
20260906161026 23 135 6.4 19.3 0.00 0.03 0.03 82 1019.7
20260906160521 22 127 11.3 19.3 0.00 0.03 0.03 82 1019.7
20260906160044 22 100 6.4 19.3 0.00 0.03 0.03 84 1019.6
20260906155523 22 128 9.7 19.3 0.00 0.03 0.03 83 1019.7
20260906155020 22 172 9.7 22.5 0.00 0.03 0.03 83 1019.8
20260906154541 22 111 11.3 22.5 0.00 0.03 0.03 84 1019.8
20260906154020 22 128 11.3 19.3 0.00 0.03 0.03 83 1019.9
20260906153527 22 140 11.3 19.3 0.00 0.03 0.03 84 1020.0
20260906153045 22 126 4.8 16.1 0.00 0.03 0.03 85 1020.0
20260906152520 22 112 6.4 16.1 0.00 0.03 0.03 85 1020.0
20260906152028 22 132 8.0 17.7 0.00 0.03 0.03 85 1020.1
20260906151543 21 122 6.4 19.3 0.00 0.03 0.03 86 1020.0
20260906151025 21 155 11.3 22.5 0.00 0.03 0.03 86 1019.9
20260906150521 21 126 11.3 22.5 0.00 0.03 0.03 86 1019.9
20260906150042 21 115 8.0 22.5 0.00 0.03 0.03 87 1019.9
20260906145518 21 126 8.0 25.7 0.00 0.03 0.03 88 1019.9
20260906145019 21 45 12.9 25.7 0.00 0.03 0.03 88 1019.8
20260906144544 21 116 12.9 22.5 0.00 0.03 0.03 89 1019.7
20260906144026 21 115 11.3 22.5 0.00 0.03 0.03 90 1019.7
20260906143525 21 129 9.7 17.7 0.00 0.03 0.03 90 1019.7
20260906143049 21 140 9.7 17.7 0.00 0.03 0.03 91 1019.9
20260906142525 21 129 8.0 16.1 0.00 0.03 0.03 92 1019.9
20260906142026 20 135 6.4 17.7 0.00 0.03 0.03 92 1019.9
20260906141542 20 119 4.8 17.7 0.00 0.03 0.03 92 1019.9
20260906141029 20 144 8.0 17.7 0.00 0.03 0.03 93 1019.8
20260906140525 20 130 4.8 14.5 0.00 0.03 0.03 93 1019.8
20260906140059 20 120 1.6 14.5 0.00 0.03 0.03 93 1019.8
20260906135520 20 108 6.4 14.5 0.00 0.03 0.03 93 1019.8
20260906135022 20 114 8.0 16.1 0.00 0.03 0.03 93 1019.7
20260906134551 20 138 8.0 16.1 0.00 0.03 0.03 93 1019.7
20260906134023 20 119 6.4 19.3 0.00 0.03 0.03 93 1019.5
20260906133523 20 125 6.4 19.3 0.00 0.03 0.03 93 1019.5
20260906133042 20 113 8.0 19.3 0.00 0.03 0.03 93 1019.4
20260906132518 20 134 6.4 19.3 0.00 0.03 0.03 93 1019.4
20260906132021 20 127 9.7 19.3 0.00 0.03 0.03 93 1019.4
20260906131543 20 135 6.4 16.1 0.00 0.03 0.03 93 1019.3
20260906131020 20 108 6.4 16.1 0.00 0.03 0.03 93 1019.4
20260906130524 20 115 6.4 16.1 0.00 0.03 0.03 93 1019.3
20260906130050 20 122 6.4 16.1 0.00 0.03 0.03 93 1019.4
20260906125525 19 140 3.2 11.3 0.03 0.03 0.03 93 1019.4
20260906125023 19 134 1.6 9.7 0.03 0.03 0.03 93 1019.4
20260906124545 19 103 3.2 9.7 0.03 0.03 0.03 93 1019.3
20260906124023 19 109 1.6 6.4 0.03 0.03 0.03 92 1019.3
20260906123519 18 0 0.0 6.4 0.03 0.03 0.03 92 1019.3
20260906123041 18 0 0.0 6.4 0.03 0.03 0.03 92 1019.3
20260906122521 18 0 1.6 6.4 0.03 0.03 0.03 92 1019.3
20260906122023 18 0 0.0 6.4 0.03 0.03 0.03 92 1019.2
20260906121553 18 0 0.0 4.8 0.03 0.03 0.03 92 1019.2
20260906121020 18 0 0.0 6.4 0.03 0.03 0.03 92 1019.2
20260906120525 18 0 0.0 6.4 0.03 0.03 0.03 92 1019.1
20260906120046 18 0 0.0 6.4 0.03 0.03 0.03 92 1019.0
20260906115527 18 113 0.0 6.4 0.00 0.00 0.00 92 1018.9
20260906115024 19 113 0.0 4.8 0.00 0.00 0.00 92 1018.8
20260906114552 19 114 0.0 6.4 0.00 0.00 0.00 92 1018.9
20260906114022 19 0 0.0 6.4 0.00 0.00 0.00 92 1018.8
20260906113524 19 123 1.6 4.8 0.00 0.00 0.00 91 1018.7
20260906113051 19 0 0.0 3.2 0.00 0.00 0.00 91 1018.8
20260906112520 19 0 0.0 1.6 0.00 0.00 0.00 91 1018.8
20260906112019 19 0 0.0 8.0 0.00 0.00 0.00 91 1018.7
20260906111542 19 0 0.0 11.3 0.00 0.00 0.00 91 1018.6
20260906111020 19 125 3.2 11.3 0.00 0.00 0.00 91 1018.6
20260906110518 19 107 1.6 6.4 0.00 0.00 0.00 91 1018.6
20260906110046 19 0 0.0 3.2 0.00 0.00 0.00 91 1018.8
20260906105525 19 0 0.0 0.0 0.00 0.00 0.00 91 1018.7
20260906105024 19 0 0.0 0.0 0.00 0.00 0.00 91 1018.6
20260906104543 19 0 0.0 0.0 0.00 0.00 0.00 91 1018.6
20260906104023 19 0 0.0 0.0 0.00 0.00 0.00 91 1018.5
20260906103522 19 0 0.0 0.0 0.00 0.00 0.00 91 1018.6
20260906103042 20 0 0.0 0.0 0.00 0.00 0.00 91 1018.5
20260906102520 20 0 0.0 0.0 0.00 0.00 0.00 91 1018.5
20260906102020 20 0 0.0 0.0 0.00 0.00 0.00 91 1018.5
20260906101541 20 0 0.0 1.6 0.00 0.00 0.00 91 1018.5
20260906101023 20 0 0.0 3.2 0.00 0.00 0.00 91 1018.4
20260906100523 20 0 0.0 3.2 0.00 0.00 0.00 91 1018.3
20260906100045 20 0 0.0 3.2 0.00 0.00 0.00 91 1018.2
20260906095520 20 0 0.0 3.2 0.00 0.00 0.00 91 1018.1
20260906095024 20 0 0.0 3.2 0.00 0.00 0.00 91 1018.0
20260906094548 20 0 0.0 4.8 0.00 0.00 0.00 91 1017.9
20260906094020 20 151 0.0 4.8 0.00 0.00 0.00 91 1017.9
20260906093520 20 151 0.0 8.0 0.00 0.00 0.00 91 1017.9
20260906093041 20 0 0.0 9.7 0.00 0.00 0.00 91 1017.9
20260906092520 20 132 1.6 9.7 0.00 0.00 0.00 91 1017.8
20260906092022 20 0 1.6 11.3 0.00 0.00 0.00 91 1017.7
20260906091549 20 116 1.6 11.3 0.00 0.00 0.00 91 1017.6
20260906091023 20 130 1.6 8.0 0.00 0.00 0.00 91 1017.5
20260906090523 20 107 1.6 6.4 0.00 0.00 0.00 91 1017.7
20260906090044 20 0 1.6 4.8 0.00 0.00 0.00 91 1017.7
20260906085519 20 105 1.6 4.8 0.00 0.00 0.00 91 1017.7
20260906085020 20 101 0.0 6.4 0.00 0.00 0.00 90 1017.8
20260906084546 20 0 0.0 11.3 0.00 0.00 0.00 90 1017.8
20260906084023 20 96 0.0 11.3 0.00 0.00 0.00 90 1017.6
20260906083521 20 97 0.0 9.7 0.00 0.00 0.00 90 1017.7
20260906083041 20 0 0.0 9.7 0.00 0.00 0.00 90 1017.7
20260906082518 20 96 0.0 11.3 0.00 0.00 0.00 90 1017.7
20260906082018 20 97 1.6 11.3 0.00 0.00 0.00 90 1017.7
20260906081547 20 0 1.6 11.3 0.00 0.00 0.00 90 1017.6
20260906081025 20 0 0.0 4.8 0.00 0.00 0.00 90 1017.8
20260906080525 20 0 0.0 6.4 0.00 0.00 0.00 89 1017.9
20260906080044 20 0 0.0 9.7 0.00 0.00 0.00 89 1017.9
20260906075524 20 104 1.6 9.7 0.00 0.00 0.00 89 1017.9
20260906075024 20 107 1.6 6.4 0.00 0.00 0.00 89 1017.8
20260906074552 20 123 0.0 4.8 0.00 0.00 0.00 89 1017.9
20260906074020 20 126 0.0 4.8 0.00 0.00 0.00 88 1017.9
20260906073521 20 0 0.0 3.2 0.00 0.00 0.00 88 1018.0
20260906073047 20 0 0.0 0.0 0.00 0.00 0.00 88 1018.2
20260906072520 20 0 0.0 0.0 0.00 0.00 0.00 88 1018.1
20260906072025 20 0 0.0 1.6 0.00 0.00 0.00 88 1018.0
20260906071544 20 0 0.0 1.6 0.00 0.00 0.00 88 1018.1
20260906071025 20 0 0.0 1.6 0.00 0.00 0.00 88 1018.1
20260906070527 20 0 0.0 3.2 0.00 0.00 0.00 88 1018.0
20260906070044 20 0 0.0 3.2 0.00 0.00 0.00 88 1017.9
20260906065525 20 0 0.0 1.6 0.00 0.00 0.00 88 1018.0
20260906065019 20 0 0.0 1.6 0.00 0.00 0.00 88 1018.0
20260906064542 21 0 0.0 0.0 0.00 0.00 0.00 88 1018.1
20260906064018 21 0 0.0 0.0 0.00 0.00 0.00 88 1018.2
20260906063518 21 0 0.0 0.0 0.00 0.00 0.00 88 1018.2
20260906063045 21 0 0.0 0.0 0.00 0.00 0.00 88 1018.2
20260906062529 21 0 0.0 0.0 0.00 0.00 0.00 88 1018.2
20260906062020 21 0 0.0 0.0 0.00 0.00 0.00 88 1018.2
20260906061546 21 0 0.0 0.0 0.00 0.00 0.00 88 1018.2
20260906061023 21 0 0.0 0.0 0.00 0.00 0.00 87 1018.2
20260906060524 21 0 0.0 0.0 0.00 0.00 0.00 87 1018.3
20260906055524 21 0 0.0 0.0 0.00 0.00 0.00 87 1018.2
20260906055024 21 0 0.0 0.0 0.00 0.00 0.00 87 1018.2
20260906054550 21 0 0.0 0.0 0.00 0.00 0.00 87 1018.2
20260906054019 21 0 0.0 0.0 0.00 0.00 0.00 87 1018.2
20260906053520 21 0 0.0 0.0 0.00 0.00 0.00 87 1018.2
20260906053045 21 0 0.0 0.0 0.00 0.00 0.00 87 1018.2
20260906052526 21 0 0.0 0.0 0.00 0.00 0.00 87 1018.3
20260906052024 21 0 0.0 0.0 0.00 0.00 0.00 87 1018.2
20260906051545 21 0 0.0 0.0 0.00 0.00 0.00 86 1018.4
20260906051024 21 0 0.0 0.0 0.00 0.00 0.00 86 1018.3
20260906050525 21 0 0.0 0.0 0.00 0.00 0.00 86 1018.2
20260906050053 21 0 0.0 0.0 0.00 0.00 0.00 86 1018.3
20260906045524 21 0 0.0 4.8 0.00 0.00 0.00 86 1018.3
20260906045024 21 0 0.0 4.8 0.00 0.00 0.00 86 1018.4
20260906044544 21 0 0.0 0.0 0.00 0.00 0.00 86 1018.4
20260906044024 21 0 0.0 0.0 0.00 0.00 0.00 86 1018.4
20260906043520 21 0 0.0 0.0 0.00 0.00 0.00 86 1018.5
20260906043044 21 0 0.0 0.0 0.00 0.00 0.00 86 1018.4
20260906042521 21 0 0.0 0.0 0.00 0.00 0.00 86 1018.4
20260906042020 21 0 0.0 0.0 0.00 0.00 0.00 86 1018.4
20260906041546 21 0 0.0 0.0 0.00 0.00 0.00 85 1018.5
20260906041025 21 0 0.0 0.0 0.00 0.00 0.00 85 1018.6
20260906040521 21 0 0.0 0.0 0.00 0.00 0.00 85 1018.5
20260906040044 21 0 0.0 0.0 0.00 0.00 0.00 85 1018.5
20260906035528 21 0 0.0 0.0 0.00 0.00 0.00 85 1018.4
20260906035020 21 0 0.0 0.0 0.00 0.00 0.00 85 1018.6
20260906034554 21 0 0.0 0.0 0.00 0.00 0.00 85 1018.5
20260906034020 22 0 0.0 0.0 0.00 0.00 0.00 85 1018.5
20260906033520 22 0 0.0 0.0 0.00 0.00 0.00 85 1018.5
20260906033041 22 0 0.0 0.0 0.00 0.00 0.00 84 1018.5
20260906032519 22 0 0.0 0.0 0.00 0.00 0.00 84 1018.5
20260906032022 22 0 0.0 0.0 0.00 0.00 0.00 84 1018.4
20260906031606 21 0 0.0 0.0 0.00 0.00 0.00 83 1018.7
20260906031023 21 0 0.0 0.0 0.00 0.00 0.00 82 1018.6
20260906030525 22 0 0.0 0.0 0.00 0.00 0.00 82 1018.7
20260906030044 22 0 0.0 0.0 0.00 0.00 0.00 82 1018.6
20260906025521 22 0 0.0 0.0 0.00 0.00 0.00 82 1018.5
20260906025021 22 0 0.0 0.0 0.00 0.00 0.00 81 1018.3
20260906024551 22 0 0.0 0.0 0.00 0.00 0.00 81 1018.1
20260906024020 22 0 0.0 0.0 0.00 0.00 0.00 81 1017.9
20260906023520 22 0 0.0 0.0 0.00 0.00 0.00 81 1018.1
20260906023053 22 0 0.0 0.0 0.00 0.00 0.00 80 1018.0
20260906022525 22 0 0.0 0.0 0.00 0.00 0.00 80 1017.8
20260906022025 22 0 0.0 0.0 0.00 0.00 0.00 79 1017.8
20260906021543 22 0 0.0 0.0 0.00 0.00 0.00 79 1017.6
20260906021025 22 0 0.0 0.0 0.00 0.00 0.00 78 1017.4
20260906020524 23 0 0.0 0.0 0.00 0.00 0.00 78 1017.3
20260906020049 23 0 0.0 0.0 0.00 0.00 0.00 77 1017.2
20260906015518 23 0 0.0 0.0 0.00 0.00 0.00 77 1017.1
20260906015019 23 0 0.0 0.0 0.00 0.00 0.00 76 1016.9
20260906014542 23 0 0.0 0.0 0.00 0.00 0.00 76 1016.7
20260906014024 23 0 0.0 3.2 0.00 0.00 0.00 76 1016.6
20260906013519 23 0 0.0 3.2 0.00 0.00 0.00 75 1016.5
20260906013041 23 0 0.0 3.2 0.00 0.00 0.00 75 1016.6
20260906012520 23 0 0.0 4.8 0.00 0.00 0.00 75 1016.5
20260906012022 24 127 0.0 4.8 0.00 0.00 0.00 75 1016.6
20260906011545 24 0 1.6 6.4 0.00 0.00 0.00 75 1016.5
20260906011020 24 127 1.6 6.4 0.00 0.00 0.00 74 1016.4
20260906010522 24 0 1.6 8.0 0.00 0.00 0.00 74 1016.4
20260906010041 24 127 3.2 14.5 0.00 0.00 0.00 74 1016.3
20260906005520 25 127 6.4 14.5 0.00 0.00 0.00 74 1016.1
20260906005025 25 125 6.4 14.5 0.00 0.00 0.00 74 1016.0
20260906004549 25 137 4.8 12.9 0.00 0.00 0.00 74 1016.0
20260906004027 25 118 4.8 11.3 0.00 0.00 0.00 73 1016.0
20260906003523 25 127 6.4 11.3 0.00 0.00 0.00 73 1016.0
20260906003042 25 121 4.8 12.9 0.00 0.00 0.00 73 1016.1
20260906002518 25 124 3.2 16.1 0.00 0.00 0.00 73 1016.1
20260906002020 26 131 4.8 16.1 0.00 0.00 0.00 73 1016.0
20260906001544 26 103 4.8 12.9 0.00 0.00 0.00 72 1016.0
20260906001025 26 109 4.8 12.9 0.00 0.00 0.00 72 1016.0
20260906000525 26 127 4.8 17.7 0.00 0.00 0.00 72 1016.0
20260906000039 26 113 4.8 17.7 0.00 0.00 0.00 71 1016.0
20260905235525 26 124 6.4 17.7 0.00 0.00 0.00 70 1015.9
20260905235028 26 112 6.4 16.1 0.00 0.00 0.00 70 1015.8
20260905234543 26 105 4.8 16.1 0.00 0.00 0.00 70 1015.7
20260905234019 27 99 3.2 16.1 0.00 0.00 0.00 70 1015.6
20260905233520 27 107 4.8 16.1 0.00 0.00 0.00 70 1015.6
20260905233047 27 74 3.2 16.1 0.00 0.00 0.00 70 1015.6
20260905232520 27 93 4.8 16.1 0.00 0.00 0.00 70 1015.5
20260905232020 27 44 4.8 12.9 0.00 0.00 0.00 70 1015.5
20260905231542 27 0 3.2 14.5 0.00 0.00 0.00 70 1015.4
20260905231028 27 54 3.2 20.9 0.00 0.00 0.00 69 1015.1
20260905230523 27 58 6.4 20.9 0.00 0.00 0.00 70 1015.1
20260905230045 27 113 3.2 16.1 0.00 0.00 0.00 69 1015.2
20260905225524 27 97 3.2 16.1 0.00 0.00 0.00 69 1015.4
20260905225024 27 94 1.6 16.1 0.00 0.00 0.00 69 1015.5
20260905224541 28 102 3.2 11.3 0.00 0.00 0.00 68 1015.5
20260905224025 27 0 0.0 11.3 0.00 0.00 0.00 68 1015.3
20260905223519 27 93 3.2 17.7 0.00 0.00 0.00 68 1015.2
20260905223042 28 108 3.2 17.7 0.00 0.00 0.00 67 1015.4
20260905222521 28 109 4.8 14.5 0.00 0.00 0.00 69 1015.5
20260905222019 28 148 3.2 14.5 0.00 0.00 0.00 68 1015.4
20260905221559 28 119 4.8 20.9 0.00 0.00 0.00 69 1015.2
20260905221026 28 90 8.0 20.9 0.00 0.00 0.00 68 1015.0
20260905220524 28 88 4.8 17.7 0.00 0.00 0.00 70 1015.1
20260905220044 28 82 3.2 17.7 0.00 0.00 0.00 70 1015.1
20260905215524 28 86 4.8 17.7 0.00 0.00 0.00 69 1015.1
20260905215021 28 0 3.2 19.3 0.00 0.00 0.00 70 1015.1
20260905214543 28 15 4.8 19.3 0.00 0.00 0.00 71 1015.2
20260905214020 28 90 4.8 20.9 0.00 0.00 0.00 69 1015.2
20260905213520 28 46 4.8 20.9 0.00 0.00 0.00 70 1015.3
20260905213044 27 0 3.2 20.9 0.00 0.00 0.00 70 1015.3
20260905212521 27 138 4.8 17.7 0.00 0.00 0.00 69 1015.5
20260905212020 27 74 1.6 14.5 0.00 0.00 0.00 69 1015.6
20260905211546 27 99 6.4 14.5 0.00 0.00 0.00 70 1015.8
20260905211021 27 88 3.2 14.5 0.00 0.00 0.00 70 1015.8
20260905210523 28 35 1.6 12.9 0.00 0.00 0.00 70 1015.8
20260905210044 27 29 1.6 12.9 0.00 0.00 0.00 71 1016.0
20260905205519 27 0 3.2 11.3 0.00 0.00 0.00 71 1016.1
20260905205020 27 137 0.0 11.3 0.00 0.00 0.00 74 1016.3
20260905204546 26 93 1.6 11.3 0.00 0.00 0.00 75 1016.4
20260905204023 26 0 0.0 9.7 0.00 0.00 0.00 75 1016.5
20260905203523 26 96 1.6 12.9 0.00 0.00 0.00 75 1016.6
20260905203042 26 110 1.6 12.9 0.00 0.00 0.00 74 1016.7
20260905202522 26 0 4.8 12.9 0.00 0.00 0.00 74 1016.8
20260905202019 26 112 4.8 12.9 0.00 0.00 0.00 74 1016.9
20260905201542 26 107 1.6 11.3 0.00 0.00 0.00 71 1017.0
20260905201020 27 111 6.4 11.3 0.00 0.00 0.00 68 1017.0
20260905200526 27 126 3.2 9.7 0.00 0.00 0.00 73 1017.0
20260905200046 27 138 0.0 14.5 0.00 0.00 0.00 73 1017.0
20260905195519 27 97 4.8 14.5 0.00 0.00 0.00 73 1017.1
20260905195020 26 120 3.2 12.9 0.00 0.00 0.00 72 1017.2
20260905194547 26 97 4.8 12.9 0.00 0.00 0.00 75 1017.3
20260905194023 26 125 4.8 12.9 0.00 0.00 0.00 72 1017.3
20260905193520 26 95 1.6 9.7 0.00 0.00 0.00 75 1017.2
20260905193043 26 93 1.6 8.0 0.00 0.00 0.00 75 1017.3
20260905192522 26 0 1.6 6.4 0.00 0.00 0.00 75 1017.4
20260905192018 26 0 0.0 12.9 0.00 0.00 0.00 76 1017.4
20260905191543 26 134 3.2 12.9 0.00 0.00 0.00 73 1017.4
20260905191018 27 101 4.8 12.9 0.00 0.00 0.00 76 1017.3
20260905190527 26 0 0.0 11.3 0.00 0.00 0.00 74 1017.4
20260905190051 26 145 3.2 11.3 0.00 0.00 0.00 75 1017.4
20260905185523 26 153 3.2 11.3 0.00 0.00 0.00 74 1017.4
20260905185023 27 145 3.2 12.9 0.00 0.00 0.00 72 1017.4
20260905184548 27 0 3.2 14.5 0.00 0.00 0.00 74 1017.3
20260905184020 27 109 3.2 14.5 0.00 0.00 0.00 76 1017.1
20260905183521 27 103 4.8 12.9 0.00 0.00 0.00 74 1017.2
20260905183043 27 106 1.6 9.7 0.00 0.00 0.00 77 1017.2
20260905182520 26 0 0.0 9.7 0.00 0.00 0.00 80 1017.2
20260905182018 25 114 1.6 11.3 0.00 0.00 0.00 76 1017.4
20260905181540 26 103 4.8 16.1 0.00 0.00 0.00 76 1017.5
20260905181019 26 105 8.0 16.1 0.00 0.00 0.00 75 1017.5
20260905180525 26 0 3.2 11.3 0.00 0.00 0.00 77 1017.6
20260905180100 26 125 1.6 12.9 0.00 0.00 0.00 76 1017.8
20260905175524 26 132 4.8 12.9 0.00 0.00 0.00 72 1017.8
20260905175021 27 126 0.0 12.9 0.00 0.00 0.00 79 1017.9
20260905174550 26 123 4.8 12.9 0.00 0.00 0.00 82 1018.0
20260905174024 25 109 4.8 12.9 0.00 0.00 0.00 80 1018.0
20260905173525 25 102 0.0 11.3 0.00 0.00 0.00 79 1018.2
20260905173108 25 101 1.6 16.1 0.00 0.00 0.00 80 1018.3
20260905172525 25 135 6.4 16.1 0.00 0.00 0.00 79 1018.3
20260905172025 25 0 0.0 11.3 0.00 0.00 0.00 79 1018.2
20260905171552 25 134 6.4 12.9 0.00 0.00 0.00 80 1018.3
20260905171024 25 0 3.2 12.9 0.00 0.00 0.00 81 1018.2
20260905170525 24 124 3.2 12.9 0.00 0.00 0.00 84 1018.2
20260905170045 24 105 0.0 6.4 0.00 0.00 0.00 85 1018.2
20260905165525 24 0 1.6 6.4 0.00 0.00 0.00 85 1018.3
20260905165022 23 75 0.0 6.4 0.00 0.00 0.00 85 1018.3
20260905164545 23 0 1.6 6.4 0.00 0.00 0.00 84 1018.3
20260905164023 24 0 1.6 4.8 0.00 0.00 0.00 85 1018.4
20260905163525 24 55 0.0 4.8 0.00 0.00 0.00 86 1018.4
20260905163047 24 0 0.0 4.8 0.00 0.00 0.00 89 1018.4